Location: Berendi
(36.9940°N, 31.0234°E)
Time: 09:45:29
(UTC+00:00)

Daily predictions for brighter satellites

Satellite Brightness Start Highest point End
(mag) Time Altitude Azimuth Time Altitude Azimuth Time Altitude Azimuth
NOAA 12 4.1 15:24:26 10° SSE 15:29:42 80° ENE 15:35:02 10° N
Cosmos 1850 Rocket 4.2 15:24:47 10° N 15:30:00 55° ENE 15:35:13 10° SSE
Cosmos 2297 Rocket 3.9 15:27:41 10° NNE 15:30:05 13° NE 15:32:29 10° ENE
Cosmos 1939 Rocket 3.9 15:28:34 10° SE 15:31:52 25° ENE 15:35:09 10° NNE
Cosmos 1452 Rocket 4.4 15:27:58 10° SW 15:33:06 53° WNW 15:38:16 10° N
Okean O Rocket 1.9 15:32:39 10° S 15:37:01 76° WSW 15:41:24 10° NNW
H-2A R/B 3.8 15:34:43 10° E 15:37:13 13° ENE 15:39:44 10° NE
USA 276 2.2 15:34:23 10° NW 15:37:34 78° SW 15:40:45 10° SE
COSMO-SKYMED 1 2.9 15:35:17 10° NNE 15:39:27 44° E 15:43:34 10° S
BREEZE-M DEB (TANK) 4.3 15:39:39 10° S 15:40:53 12° SSE 15:41:52 10° ESE
ADEOS Rocket 4.4 15:35:28 10° N 15:41:32 47° WNW 15:48:13 10° SW
CORIOLIS 4.2 15:37:03 10° SSE 15:42:23 86° WSW 15:47:46 10° NNW
USA 281 3.5 15:36:38 10° SSE 15:43:10 76° WSW 15:49:46 10° NNW
Cosmos 2098 Rocket 4.2 15:43:00 10° NNW 15:45:45 31° W 15:48:20 10° SSW
Cosmos 1689 Rocket 2.3 15:44:27 10° NNE 15:47:15 44° E 15:50:00 10° S
Cosmos 1328 3.7 15:45:00 10° N 15:48:57 88° E 15:52:54 10° S
CZ-4 R/B 2.5 15:46:29 10° ESE 15:49:29 21° ENE 15:52:28 10° NNE
YAOGAN 1 3.8 15:48:52 10° ESE 15:52:09 22° ENE 15:55:27 10° NNE
Cosmos 1825 Rocket 3.5 15:49:21 10° N 15:53:47 63° E 15:58:08 10° SSE
Cosmos 1340 4.2 15:51:39 10° NNE 15:54:10 17° ENE 15:56:07 12° ESE
Lacrosse 5 4.4 15:53:18 10° NNW 15:54:11 10° NNW 15:55:05 10° N
Cosmos 2219 4.4 15:51:25 10° N 15:55:48 22° NE 15:59:20 13° E
ERS-2 3.9 15:53:16 10° N 15:56:36 34° WNW 15:59:55 10° SW
Atlas Centaur 2 4.1 15:52:40 10° SW 15:59:53 32° SSE 16:06:03 13° ESE
Cosmos 44 3.0 15:58:44 10° SSW 16:03:07 87° ESE 16:07:47 10° NNE
Cosmos 1400 Rocket 3.2 16:00:03 10° SSE 16:03:58 43° E 16:07:52 10° NNE
Okean-O 3.1 16:00:50 10° SE 16:04:55 39° ENE 16:09:03 10° N
Geosat 4.1 16:00:11 10° NE 16:05:07 55° ESE 16:10:02 10° S
Cosmos 1726 Rocket 3.4 16:01:08 10° S 16:05:27 83° E 16:09:49 10° N
Meteor 2-14 Rocket 4.5 16:01:04 10° N 16:07:15 89° W 16:13:21 10° S
CZ-4B R/B 3.8 16:06:41 10° NNW 16:09:19 23° WNW 16:11:54 10° SW
Delta 2 Rocket 4.1 16:04:46 10° W 16:10:05 79° S 16:14:08 20° E
Cosmos 1758 Rocket 4.2 16:06:38 10° NNW 16:10:59 59° W 16:15:14 10° S
Milstar 3 3.6 16:07:01 10° WSW 16:13:26 39° S 16:18:20 16° ESE
Aureole 3 2.8 16:10:52 10° S 16:14:26 62° E 16:17:30 10° NNE
Elektron 3 4.2 16:10:04 10° NW 16:15:24 77° NE 16:17:54 15° SE
Nadezhda 2 Rocket 4.5 16:13:43 10° N 16:20:08 74° E 16:26:33 10° SSE
OAO 3 Rocket 3.3 16:17:43 10° W 16:22:27 68° S 16:25:01 26° ESE
NOSS 3-3 (A) 4.4 16:18:59 10° S 16:23:58 33° ESE 16:26:33 24° ENE
CZ-2C R/B 3.4 16:18:28 10° SSE 16:24:04 52° ENE 16:29:38 10° N
NOSS 3-3 (C) 4.4 16:19:02 10° S 16:24:05 34° ESE 16:26:41 24° ENE
Cosmos 2228 4.4 16:20:30 10° SSW 16:24:28 40° W 16:28:30 10° N
Cosmos 1244 Rocket 4.4 16:18:25 10° N 16:24:37 71° E 16:30:51 10° SSE
FALCON 9 DEB 3.9 16:22:45 10° WSW 16:25:50 44° NW 16:27:30 23° NNE
Cosmos 292 Rocket 4.4 16:23:06 10° SSW 16:27:46 56° WNW 16:32:30 10° N
ARGOS 4.0 16:27:37 27° E 16:28:39 29° ENE 16:33:13 10° N
Meteor 2-10 Rocket 3.8 16:26:27 10° SSE 16:31:37 45° E 16:36:36 10° NNE
FALCON 9 DEB 4.3 16:30:36 10° WSW 16:33:33 34° NW 16:34:53 23° N
Cosmos 2227 Rocket 2.8 16:29:18 10° N 16:34:22 33° ENE 16:35:16 31° ENE
SeaSat 1 3.3 16:35:06 28° ENE 16:35:10 28° NE 16:39:21 10° N
Cosmos 1656 3.5 16:32:54 10° SSW 16:38:24 78° ESE 16:44:02 10° NNE
CSL-04 Rocket 3.8 16:35:56 10° SSE 16:41:18 52° ENE 16:46:40 10° N
CZ-2D R/B 3.9 16:37:55 10° S 16:41:40 57° W 16:45:25 10° NNW
Hubble Space Telescope 3.4 16:40:35 10° SW 16:42:07 12° SSW 16:43:38 10° S
Cosmos 1302 Rocket 4.5 16:40:07 10° SSW 16:45:18 62° WNW 16:50:33 10° N
Cosmos 1892 3.4 16:41:36 10° N 16:44:14 37° NNE 16:44:14 37° NNE
Cosmos 2058 Rocket 3.8 16:41:55 10° SSW 16:46:17 54° W 16:50:42 10° N
OAO 2 Rocket 3.7 16:42:04 10° SW 16:46:47 45° SSE 16:47:42 40° SE
Cosmos 968 Rocket 4.0 16:42:26 10° N 16:46:53 37° NE 16:46:53 37° NE
Cosmos 1697 Rocket 2.8 16:44:30 10° S 16:49:52 49° ESE 16:51:02 42° ENE
Centaur AC-119 4.2 16:49:50 10° WSW 16:52:57 16° SSW 16:53:39 15° S
Cosmos 1486 Rocket 4.3 16:48:21 10° N 16:53:23 46° ENE 16:53:23 46° ENE
S3M 3.8 16:49:41 10° S 16:55:45 77° E 17:01:54 10° N
GEOS 3 Rocket 3.6 16:55:36 48° ESE 16:56:56 64° NE 17:02:15 10° NNW
Helios 1A Rocket 4.3 16:54:37 10° S 16:58:30 39° W 17:02:22 10° NNW
Cosmos 220 Rocket 4.2 16:56:25 10° S 16:59:52 55° SSE 16:59:52 55° SSE
Timation 2 Rocket 4.2 16:54:43 10° NNW 17:01:23 78° WSW 17:08:12 10° SSE
CRYOSAT 2 4.3 17:03:11 10° N 17:08:04 82° W 17:12:55 10° S
Cosmos 1980 Rocket 4.2 17:05:59 10° S 17:06:39 13° SSE 17:06:39 13° SSE
Cosmos 2297 Rocket 2.0 17:09:16 10° NNW 17:14:57 88° ENE 17:15:53 64° SSE
H-2A R/B 2.2 17:11:06 13° S 17:15:53 76° WSW 17:21:21 10° NNW
CSL-04 Debris 4.4 17:12:29 10° S 17:17:51 69° WSW 17:23:18 10° NNW
MOS 1 Rocket 4.3 17:17:23 10° N 17:21:50 46° WNW 17:26:32 10° SSW
CZ-4 R/B 3.7 17:21:13 10° SSW 17:24:23 23° W 17:27:32 10° NW
YAOGAN 1 4.5 17:24:18 10° SSW 17:28:04 29° W 17:31:50 10° NW
Cosmos 1992 Rocket 4.3 17:23:03 10° SSW 17:28:12 64° WNW 17:28:56 57° NNW
Cosmos 2219 3.9 17:34:40 10° NNW 17:40:15 52° WSW 17:41:21 46° SW
Atlas Centaur 2 3.4 17:41:01 10° WSW 17:48:39 49° S 17:48:39 49° S
USA 215 4.5 18:17:28 33° NNW 18:17:28 33° NNW 18:21:01 10° NW
Cosmos 2227 Rocket 3.9 18:13:23 10° NW 18:17:08 29° W 18:17:08 29° W
H-2A R/B (2) 4.3 18:17:48 10° W 18:42:29 47° SW 18:42:29 47° SW
